Weather History for Effingham, IL

Change the Weather History Date:

Wednesday, May 22, 2013

  Actual Average (KMTO) Record (KMTO)
Temperature  
Mean Temperature 70 °F 65 °F  
Max Temperature 77 °F 75 °F 91 °F (1964)
Min Temperature 62 °F 55 °F 39 °F (1963)
Degree Days  
Heating Degree Days 0 3  
Month to date heating degree days 108  
Since 1 July heating degree days 5370  
Cooling Degree Days 4 3  
Month to date cooling degree days 42  
Year to date cooling degree days 56  
Growing Degree Days 20 (Base 50)    
Moisture  
Dew Point 59 °F    
Average Humidity 71    
Maximum Humidity 88    
Minimum Humidity 51    
Precipitation  
Precipitation 0.00 in 0.14 in 1.14 in (1968)
Month to date precipitation 3.32  
Year to date precipitation 13.30  
Sea Level Pressure  
Sea Level Pressure 29.76 in    
Wind  
Wind Speed 9 mph (SW)    
Max Wind Speed 16 mph    
Max Gust Speed 25 mph    
Visibility 10 miles    
Events      
T = Trace of Precipitation, MM = Missing Value Source: NWS Daily Summary

Daily Weather History Graph

Daily Weather History Graph

Search for Another Location

Airport:

Trip Planner

Search our weather history database for the weather conditions in past years. The results will help you decide how hot, cold, wet, or windy it might be!

Date:

Astronomy

May. 22, 2013 Rise Set
Actual Time 5:35 AM CDT 8:06 PM CDT
Civil Twilight 5:04 AM CDT 8:37 PM CDT
Nautical Twilight 4:26 AM CDT 9:15 PM CDT
Astronomical Twilight 3:44 AM CDT 9:58 PM CDT
Moon 5:29 PM CDT (5/22) 3:38 AM CDT (5/22)
Length of Visible Light 15h 32m
Length of Day
14h 31m
Waxing Gibbous, 91% of the Moon is Illuminated
May 22
Waxing Gibbous
May 24
Full
May 31
Last Quarter
Jun 8
New
Jun 16
First Quarter

Hourly Weather History & Observations

Time (CDT) Temp. Dew Point Humidity Pressure Visibility Wind Dir Wind Speed Gust Speed Precip Events Conditions
12:15 AM 67.6 °F 63.0 °F 85% 29.75 in 10.0 mi South 6.9 mph - N/A   Overcast
12:35 AM 67.3 °F 62.8 °F 85% 29.75 in 10.0 mi South 8.1 mph - N/A   Scattered Clouds
12:55 AM 67.1 °F 62.6 °F 85% 29.75 in 10.0 mi South 9.2 mph 16.1 mph N/A   Mostly Cloudy
1:15 AM 66.6 °F 62.8 °F 88% 29.74 in 10.0 mi SSE 8.1 mph - N/A   Mostly Cloudy
1:35 AM 66.6 °F 63.0 °F 88% 29.73 in 10.0 mi South 9.2 mph - N/A   Overcast
1:55 AM 66.6 °F 62.8 °F 88% 29.74 in 10.0 mi South 8.1 mph - N/A   Overcast
2:15 AM 66.6 °F 62.8 °F 88% 29.74 in 10.0 mi SSW 10.4 mph 18.4 mph N/A   Overcast
2:35 AM 66.6 °F 62.6 °F 87% 29.74 in 10.0 mi SSW 9.2 mph 17.3 mph N/A   Overcast
2:55 AM 66.4 °F 62.6 °F 88% 29.73 in 10.0 mi SW 11.5 mph - N/A   Overcast
3:15 AM 66.2 °F 62.6 °F 88% 29.73 in 10.0 mi SW 8.1 mph - N/A   Mostly Cloudy
3:35 AM 66.2 °F 62.1 °F 86% 29.73 in 10.0 mi SSW 8.1 mph 16.1 mph N/A   Overcast
3:55 AM 66.2 °F 61.5 °F 85% 29.73 in 10.0 mi SSW 10.4 mph - N/A   Overcast
4:15 AM 66.2 °F 61.3 °F 84% 29.74 in 10.0 mi SSW 8.1 mph - N/A   Overcast
4:35 AM 66.2 °F 60.3 °F 81% 29.73 in 10.0 mi SSW 8.1 mph - N/A   Overcast
4:55 AM 66.2 °F 60.1 °F 81% 29.74 in 10.0 mi South 5.8 mph - N/A   Overcast
5:15 AM 66.2 °F 59.9 °F 80% 29.74 in 10.0 mi South 4.6 mph - N/A   Overcast
5:35 AM 65.8 °F 59.2 °F 79% 29.73 in 10.0 mi South 4.6 mph - N/A   Overcast
5:55 AM 65.5 °F 59.2 °F 80% 29.71 in 10.0 mi SSE 3.5 mph - N/A   Mostly Cloudy
6:15 AM 64.8 °F 59.4 °F 83% 29.71 in 10.0 mi SSE 5.8 mph - N/A   Mostly Cloudy
6:35 AM 64.9 °F 59.7 °F 83% 29.71 in 10.0 mi SSE 5.8 mph - N/A   Scattered Clouds
6:55 AM 65.5 °F 60.1 °F 83% 29.72 in 10.0 mi South 8.1 mph - N/A   Clear
7:15 AM 66.4 °F 60.6 °F 82% 29.72 in 10.0 mi South 16.1 mph 20.7 mph N/A   Scattered Clouds
7:35 AM 67.1 °F 60.4 °F 79% 29.72 in 10.0 mi South 12.7 mph 17.3 mph N/A   Mostly Cloudy
7:55 AM 67.1 °F 59.5 °F 77% 29.73 in 10.0 mi SSW 15.0 mph 25.3 mph N/A   Overcast
8:15 AM 66.6 °F 59.2 °F 77% 29.74 in 10.0 mi SW 12.7 mph 24.2 mph N/A   Overcast
8:35 AM 66.9 °F 59.2 °F 76% 29.74 in 10.0 mi SSW 15.0 mph 19.6 mph N/A   Overcast
8:55 AM 67.1 °F 59.7 °F 77% 29.75 in 10.0 mi SW 12.7 mph 17.3 mph N/A   Overcast
9:15 AM 66.6 °F 59.2 °F 77% 29.75 in 10.0 mi SW 9.2 mph 20.7 mph N/A   Overcast
9:35 AM 68.0 °F 59.4 °F 74% 29.75 in 10.0 mi SW 13.8 mph 19.6 mph N/A   Mostly Cloudy
9:55 AM 67.8 °F 59.7 °F 75% 29.75 in 10.0 mi SW 11.5 mph 18.4 mph N/A   Overcast
10:15 AM 67.8 °F 59.9 °F 76% 29.76 in 10.0 mi SW 8.1 mph - N/A   Overcast
10:35 AM 69.8 °F 61.2 °F 74% 29.76 in 10.0 mi SSW 11.5 mph - N/A   Overcast
10:55 AM 70.3 °F 61.7 °F 74% 29.77 in 10.0 mi SW 13.8 mph - N/A   Overcast
11:15 AM 70.9 °F 61.3 °F 72% 29.77 in 10.0 mi SSW 11.5 mph - N/A   Overcast
11:35 AM 70.0 °F 60.6 °F 72% 29.77 in 10.0 mi WSW 13.8 mph 18.4 mph N/A   Overcast
11:55 AM 70.7 °F 60.1 °F 69% 29.77 in 10.0 mi SW 13.8 mph - N/A   Mostly Cloudy
12:15 PM 71.2 °F 60.8 °F 69% 29.77 in 10.0 mi WSW 11.5 mph 17.3 mph N/A   Scattered Clouds
12:35 PM 73.2 °F 59.0 °F 61% 29.77 in 10.0 mi WSW 10.4 mph 18.4 mph N/A   Mostly Cloudy
12:55 PM 73.4 °F 60.3 °F 63% 29.77 in 10.0 mi WSW 10.4 mph - N/A   Mostly Cloudy
1:15 PM 74.8 °F 58.6 °F 57% 29.77 in 10.0 mi West 15.0 mph - N/A   Mostly Cloudy
1:35 PM 75.4 °F 58.3 °F 55% 29.77 in 10.0 mi SW 10.4 mph - N/A   Scattered Clouds
1:55 PM 75.9 °F 58.5 °F 55% 29.77 in 10.0 mi SW 15.0 mph 18.4 mph N/A   Scattered Clouds
2:15 PM 76.3 °F 56.7 °F 51% 29.77 in 10.0 mi WSW 11.5 mph 20.7 mph N/A   Scattered Clouds
2:35 PM 76.3 °F 57.2 °F 52% 29.77 in 10.0 mi SSW 11.5 mph 18.4 mph N/A   Scattered Clouds
2:55 PM 76.5 °F 57.2 °F 51% 29.76 in 10.0 mi SW 11.5 mph 18.4 mph N/A   Scattered Clouds
3:15 PM 74.3 °F 54.9 °F 51% 29.76 in 10.0 mi SW 11.5 mph 18.4 mph N/A   Mostly Cloudy
3:35 PM 73.0 °F 56.1 °F 55% 29.76 in 10.0 mi WSW 9.2 mph - N/A   Overcast
3:55 PM 74.1 °F 55.0 °F 51% 29.75 in 10.0 mi WSW 11.5 mph 18.4 mph N/A   Overcast
4:15 PM 72.5 °F 54.9 °F 54% 29.76 in 10.0 mi WSW 9.2 mph - N/A   Overcast
4:35 PM 71.4 °F 54.5 °F 55% 29.77 in 10.0 mi West 10.4 mph - N/A   Overcast
4:55 PM 72.0 °F 57.7 °F 61% 29.76 in 10.0 mi SW 5.8 mph - N/A   Mostly Cloudy
5:15 PM 73.6 °F 57.2 °F 56% 29.76 in 10.0 mi SSW 10.4 mph - N/A   Scattered Clouds
5:35 PM 72.7 °F 58.3 °F 60% 29.76 in 10.0 mi SSW 12.7 mph 16.1 mph N/A   Scattered Clouds
5:55 PM 72.3 °F 58.1 °F 61% 29.75 in 10.0 mi South 9.2 mph - N/A   Mostly Cloudy
6:15 PM 71.1 °F 58.3 °F 64% 29.75 in 10.0 mi SSW 5.8 mph - N/A   Mostly Cloudy
6:35 PM 71.8 °F 59.5 °F 65% 29.75 in 10.0 mi SSW 6.9 mph - N/A   Overcast
6:55 PM 71.6 °F 58.1 °F 62% 29.76 in 10.0 mi WSW 6.9 mph - N/A   Overcast
7:15 PM 71.1 °F 58.5 °F 64% 29.77 in 10.0 mi West 5.8 mph - N/A   Mostly Cloudy
7:35 PM 70.9 °F 56.7 °F 61% 29.77 in 10.0 mi West 10.4 mph - N/A   Mostly Cloudy
7:55 PM 70.0 °F 56.5 °F 62% 29.78 in 10.0 mi West 9.2 mph 16.1 mph N/A   Overcast
8:15 PM 69.4 °F 55.8 °F 62% 29.79 in 10.0 mi West 9.2 mph - N/A   Overcast
8:35 PM 68.0 °F 56.1 °F 66% 29.80 in 10.0 mi West 9.2 mph - N/A   Overcast
8:55 PM 68.2 °F 55.2 °F 63% 29.80 in 10.0 mi West 11.5 mph 17.3 mph N/A   Overcast
9:15 PM 67.3 °F 55.4 °F 66% 29.81 in 10.0 mi WNW 9.2 mph - N/A   Overcast
9:35 PM 67.1 °F 55.6 °F 66% 29.82 in 10.0 mi WNW 10.4 mph - N/A   Overcast
9:55 PM 66.4 °F 55.6 °F 68% 29.83 in 10.0 mi WNW 9.2 mph - N/A   Overcast
10:35 PM 65.3 °F 55.6 °F 71% 29.84 in 10.0 mi WNW 9.2 mph - N/A   Overcast
10:55 PM 64.9 °F 55.6 °F 72% 29.84 in 10.0 mi WNW 6.9 mph - N/A   Overcast
11:15 PM 64.0 °F 55.0 °F 73% 29.85 in 10.0 mi West 5.8 mph - N/A   Overcast
11:35 PM 63.5 °F 54.5 °F 72% 29.85 in 10.0 mi West 6.9 mph - N/A   Mostly Cloudy
11:55 PM 62.1 °F 54.5 °F 76% 29.85 in 10.0 mi West 6.9 mph - N/A   Scattered Clouds